QLK223 YSSY-YMML

Flight info

Callsign QLK223
Flight time 1h 9m
Altitude 38000
Route WOL H65 LEECE Q29 ML
Aircraft A319/M-SDE3FGHIRWY/LB1

Departure

Time 2026-04-21 22:13
Airport Sydney Kingsford Smith International Airport (YSSY)

Arrival

Time 2026-04-21 23:22
Airport Melbourne Airport (YMML)
Time Latitude Longitude Altitude Speed Heading
2026-04-21 22:10 -33.93068 151.17843 31 ft 0 kts 285°
2026-04-21 22:11 -33.93068 151.17840 31 ft 2 kts 285°
2026-04-21 22:11 -33.93060 151.17788 31 ft 10 kts 280°
2026-04-21 22:11 -33.93027 151.17686 30 ft 13 kts 285°
2026-04-21 22:12 -33.93001 151.17565 30 ft 17 kts 284°
2026-04-21 22:12 -33.92976 151.17406 24 ft 22 kts 281°
2026-04-21 22:12 -33.92956 151.17272 21 ft 13 kts 275°
2026-04-21 22:12 -33.93042 151.17188 19 ft 28 kts 175°
2026-04-21 22:13 -33.93453 151.17295 16 ft 93 kts 168°
2026-04-21 22:13 -33.94277 151.17509 28 ft 146 kts 168°
2026-04-21 22:13 -33.95345 151.17786 457 ft 158 kts 167°
2026-04-21 22:13 -33.96449 151.17921 1150 ft 160 kts 180°
2026-04-21 22:14 -33.97564 151.17871 1817 ft 163 kts 181°
2026-04-21 22:14 -33.98748 151.17789 2193 ft 184 kts 181°
2026-04-21 22:14 -34.00114 151.17695 2521 ft 210 kts 181°
2026-04-21 22:14 -34.01658 151.17597 3000 ft 234 kts 181°
2026-04-21 22:15 -34.03333 151.17742 3757 ft 247 kts 165°
2026-04-21 22:15 -34.05040 151.18145 4715 ft 255 kts 180°
2026-04-21 22:15 -34.06737 151.17485 5652 ft 264 kts 210°
2026-04-21 22:15 -34.08261 151.16227 6668 ft 267 kts 214°
2026-04-21 22:16 -34.09769 151.14886 7563 ft 271 kts 214°
2026-04-21 22:16 -34.11312 151.13536 8439 ft 275 kts 213°
2026-04-21 22:16 -34.12901 151.12203 9306 ft 280 kts 211°
2026-04-21 22:16 -34.14511 151.10904 10156 ft 285 kts 210°
2026-04-21 22:17 -34.16236 151.09552 10549 ft 307 kts 210°
2026-04-21 22:17 -34.18088 151.08125 11008 ft 321 kts 210°
2026-04-21 22:17 -34.19992 151.06671 11726 ft 325 kts 210°
2026-04-21 22:17 -34.21916 151.05203 12488 ft 328 kts 210°
2026-04-21 22:18 -34.23852 151.03723 13258 ft 331 kts 210°
2026-04-21 22:18 -34.25807 151.02221 14025 ft 334 kts 210°
2026-04-21 22:18 -34.27779 151.00708 14712 ft 336 kts 210°
2026-04-21 22:18 -34.29763 150.99184 15376 ft 339 kts 210°
2026-04-21 22:19 -34.31757 150.97652 16052 ft 341 kts 210°
2026-04-21 22:19 -34.33762 150.96110 16725 ft 343 kts 210°
2026-04-21 22:19 -34.35782 150.94555 17398 ft 345 kts 209°
2026-04-21 22:19 -34.37810 150.92991 18060 ft 347 kts 209°
2026-04-21 22:20 -34.39852 150.91413 18710 ft 350 kts 209°
2026-04-21 22:20 -34.41910 150.89824 19280 ft 352 kts 209°
2026-04-21 22:20 -34.43981 150.88223 19877 ft 354 kts 209°
2026-04-21 22:20 -34.46036 150.86637 20466 ft 355 kts 209°
2026-04-21 22:21 -34.48131 150.85023 21055 ft 357 kts 209°
2026-04-21 22:21 -34.50237 150.83399 21653 ft 359 kts 209°
2026-04-21 22:21 -34.52351 150.81769 22218 ft 361 kts 209°
2026-04-21 22:21 -34.54458 150.80097 22777 ft 364 kts 213°
2026-04-21 22:22 -34.56356 150.78034 23324 ft 371 kts 224°
2026-04-21 22:22 -34.57955 150.75540 23885 ft 376 kts 230°
2026-04-21 22:22 -34.59493 150.72969 24354 ft 378 kts 230°
2026-04-21 22:22 -34.61046 150.70386 24790 ft 379 kts 230°
2026-04-21 22:23 -34.62611 150.67793 25219 ft 381 kts 230°
2026-04-21 22:23 -34.64161 150.65226 25659 ft 383 kts 230°
2026-04-21 22:23 -34.65743 150.62607 26094 ft 385 kts 230°
2026-04-21 22:23 -34.67328 150.59983 26519 ft 387 kts 230°
2026-04-21 22:24 -34.68922 150.57337 26932 ft 389 kts 230°
2026-04-21 22:24 -34.70520 150.54672 27344 ft 391 kts 230°
2026-04-21 22:24 -34.72124 150.51994 27748 ft 393 kts 230°
2026-04-21 22:24 -34.73737 150.49301 28135 ft 395 kts 230°
2026-04-21 22:25 -34.75360 150.46590 28536 ft 397 kts 230°
2026-04-21 22:25 -34.76994 150.43861 28939 ft 400 kts 231°
2026-04-21 22:25 -34.78634 150.41121 29342 ft 402 kts 231°
2026-04-21 22:25 -34.80285 150.38364 29744 ft 404 kts 231°
2026-04-21 22:26 -34.81944 150.35588 30135 ft 406 kts 231°
2026-04-21 22:26 -34.83611 150.32798 30508 ft 408 kts 231°
2026-04-21 22:26 -34.85284 150.29997 30836 ft 410 kts 231°
2026-04-21 22:26 -34.86963 150.27180 31146 ft 412 kts 231°
2026-04-21 22:27 -34.88648 150.24346 31455 ft 414 kts 231°
2026-04-21 22:27 -34.90338 150.21502 31764 ft 415 kts 231°
2026-04-21 22:27 -34.92015 150.18678 32063 ft 417 kts 231°
2026-04-21 22:27 -34.93737 150.15777 32478 ft 416 kts 231°
2026-04-21 22:28 -34.95408 150.12958 32920 ft 414 kts 231°
2026-04-21 22:28 -34.97090 150.10121 33369 ft 412 kts 231°
2026-04-21 22:28 -34.98765 150.07293 33818 ft 411 kts 231°
2026-04-21 22:28 -35.00440 150.04468 34286 ft 409 kts 231°
2026-04-21 22:29 -35.02103 150.01662 34675 ft 408 kts 231°
2026-04-21 22:29 -35.03754 149.98869 35041 ft 406 kts 231°
2026-04-21 22:29 -35.05408 149.96066 35405 ft 405 kts 231°
2026-04-21 22:29 -35.07050 149.93280 35753 ft 404 kts 231°
2026-04-21 22:30 -35.08688 149.90502 36090 ft 402 kts 231°
2026-04-21 22:30 -35.10323 149.87729 36424 ft 401 kts 232°
2026-04-21 22:30 -35.11949 149.84966 36754 ft 400 kts 232°
2026-04-21 22:30 -35.13572 149.82206 37074 ft 399 kts 232°
2026-04-21 22:31 -35.15186 149.79460 37382 ft 398 kts 232°
2026-04-21 22:31 -35.16801 149.76716 37697 ft 397 kts 232°
2026-04-21 22:31 -35.18408 149.73984 38001 ft 396 kts 232°
2026-04-21 22:31 -35.20017 149.71249 38287 ft 395 kts 232°
2026-04-21 22:32 -35.21597 149.68558 38418 ft 395 kts 232°
2026-04-21 22:32 -35.24791 149.63086 38428 ft 395 kts 232°
2026-04-21 22:33 -35.27984 149.57616 38441 ft 395 kts 232°
2026-04-21 22:33 -35.31182 149.52138 38434 ft 395 kts 232°
2026-04-21 22:34 -35.34376 149.46659 38433 ft 396 kts 232°
2026-04-21 22:34 -35.37570 149.41158 38434 ft 396 kts 232°
2026-04-21 22:35 -35.40764 149.35656 38428 ft 396 kts 232°
2026-04-21 22:35 -35.43961 149.30150 38427 ft 396 kts 232°
2026-04-21 22:36 -35.48730 149.21922 38425 ft 396 kts 232°
2026-04-21 22:36 -35.51917 149.16402 38425 ft 396 kts 232°
2026-04-21 22:37 -35.55103 149.10873 38427 ft 396 kts 232°
2026-04-21 22:37 -35.58288 149.05344 38424 ft 396 kts 233°
2026-04-21 22:38 -35.61464 148.99802 38427 ft 397 kts 233°
2026-04-21 22:38 -35.64618 148.94302 38430 ft 397 kts 233°
2026-04-21 22:39 -35.67821 148.88707 38424 ft 397 kts 233°
2026-04-21 22:39 -35.70986 148.83185 38423 ft 397 kts 233°
2026-04-21 22:40 -35.74170 148.77625 38419 ft 398 kts 233°
2026-04-21 22:40 -35.77352 148.72055 38419 ft 398 kts 233°
2026-04-21 22:41 -35.80530 148.66462 38415 ft 398 kts 233°
2026-04-21 22:41 -35.83707 148.60871 38409 ft 398 kts 233°
2026-04-21 22:42 -35.86879 148.55273 38402 ft 398 kts 233°
2026-04-21 22:42 -35.90052 148.49667 38401 ft 399 kts 233°
2026-04-21 22:43 -35.93227 148.44052 38398 ft 399 kts 233°
2026-04-21 22:43 -35.96394 148.38419 38396 ft 399 kts 233°
2026-04-21 22:44 -35.99553 148.32785 38395 ft 399 kts 233°
2026-04-21 22:44 -36.02714 148.27140 38392 ft 399 kts 233°
2026-04-21 22:45 -36.05339 148.22446 38389 ft 400 kts 233°
2026-04-21 22:45 -36.09016 148.15872 38388 ft 400 kts 233°
2026-04-21 22:46 -36.12181 148.10213 38393 ft 400 kts 233°
2026-04-21 22:46 -36.15348 148.04544 38393 ft 400 kts 233°
2026-04-21 22:47 -36.17983 147.99830 38386 ft 401 kts 233°
2026-04-21 22:47 -36.21155 147.94151 38392 ft 401 kts 234°
2026-04-21 22:48 -36.24318 147.88459 38393 ft 401 kts 234°
2026-04-21 22:48 -36.27477 147.82762 38397 ft 401 kts 234°
2026-04-21 22:49 -36.30642 147.77063 38397 ft 401 kts 234°
2026-04-21 22:49 -36.33808 147.71360 38398 ft 401 kts 234°
2026-04-21 22:50 -36.36967 147.65648 38390 ft 401 kts 234°
2026-04-21 22:50 -36.40122 147.59923 38396 ft 402 kts 234°
2026-04-21 22:51 -36.43271 147.54182 38394 ft 402 kts 234°
2026-04-21 22:51 -36.46419 147.48445 38395 ft 402 kts 234°
2026-04-21 22:52 -36.49551 147.42742 38389 ft 402 kts 234°
2026-04-21 22:52 -36.52694 147.37000 38389 ft 402 kts 234°
2026-04-21 22:53 -36.55841 147.31235 38385 ft 402 kts 234°
2026-04-21 22:53 -36.58986 147.25469 38387 ft 403 kts 234°
2026-04-21 22:54 -36.62129 147.19687 38388 ft 403 kts 234°
2026-04-21 22:54 -36.65274 147.13898 38390 ft 403 kts 234°
2026-04-21 22:55 -36.68397 147.08156 38389 ft 403 kts 234°
2026-04-21 22:55 -36.71539 147.02356 38062 ft 404 kts 234°
2026-04-21 22:56 -36.73110 146.99452 37801 ft 404 kts 234°
2026-04-21 22:56 -36.74684 146.96542 37524 ft 405 kts 234°
2026-04-21 22:56 -36.76262 146.93624 37260 ft 406 kts 234°
2026-04-21 22:56 -36.77841 146.90698 36862 ft 408 kts 234°
2026-04-21 22:57 -36.79430 146.87747 36393 ft 410 kts 234°
2026-04-21 22:57 -36.81024 146.84785 35974 ft 411 kts 234°
2026-04-21 22:57 -36.82622 146.81817 35529 ft 413 kts 235°
2026-04-21 22:57 -36.84226 146.78833 35073 ft 414 kts 235°
2026-04-21 22:58 -36.85817 146.75875 34605 ft 416 kts 235°
2026-04-21 22:58 -36.87430 146.72874 34095 ft 417 kts 235°
2026-04-21 22:58 -36.89049 146.69860 33617 ft 418 kts 235°
2026-04-21 22:58 -36.90667 146.66842 33145 ft 418 kts 235°
2026-04-21 22:59 -36.92280 146.63827 32786 ft 415 kts 235°
2026-04-21 22:59 -36.93884 146.60825 32342 ft 414 kts 235°
2026-04-21 22:59 -36.95481 146.57834 32076 ft 410 kts 235°
2026-04-21 22:59 -36.97065 146.54863 31677 ft 409 kts 235°
2026-04-21 23:00 -36.98639 146.51912 31311 ft 408 kts 235°
2026-04-21 23:00 -37.00207 146.48971 30953 ft 406 kts 234°
2026-04-21 23:00 -37.01751 146.46071 30602 ft 404 kts 234°
2026-04-21 23:00 -37.03322 146.43115 30117 ft 401 kts 234°
2026-04-21 23:01 -37.04860 146.40219 29481 ft 398 kts 234°
2026-04-21 23:01 -37.06361 146.37388 28766 ft 394 kts 234°
2026-04-21 23:01 -37.07861 146.34554 28291 ft 385 kts 234°
2026-04-21 23:01 -37.09315 146.31805 27899 ft 375 kts 234°
2026-04-21 23:02 -37.10746 146.29105 27550 ft 371 kts 236°
2026-04-21 23:02 -37.12183 146.26400 27114 ft 374 kts 236°
2026-04-21 23:02 -37.13631 146.23673 26702 ft 375 kts 236°
2026-04-21 23:02 -37.15080 146.20940 26282 ft 377 kts 236°
2026-04-21 23:03 -37.16532 146.18195 25853 ft 378 kts 236°
2026-04-21 23:03 -37.17975 146.15459 25431 ft 374 kts 236°
2026-04-21 23:03 -37.19401 146.12746 24988 ft 370 kts 236°
2026-04-21 23:03 -37.20806 146.10072 24556 ft 366 kts 236°
2026-04-21 23:04 -37.22200 146.07417 24130 ft 361 kts 236°
2026-04-21 23:04 -37.23574 146.04804 23654 ft 356 kts 236°
2026-04-21 23:04 -37.24910 146.02264 23220 ft 350 kts 236°
2026-04-21 23:04 -37.26237 145.99740 22802 ft 343 kts 236°
2026-04-21 23:05 -37.27540 145.97256 22398 ft 337 kts 236°
2026-04-21 23:05 -37.28820 145.94817 21996 ft 332 kts 236°
2026-04-21 23:05 -37.30081 145.92416 21588 ft 327 kts 236°
2026-04-21 23:05 -37.31322 145.90045 21207 ft 322 kts 236°
2026-04-21 23:06 -37.32564 145.87677 20805 ft 319 kts 236°
2026-04-21 23:06 -37.33763 145.85393 20423 ft 315 kts 236°
2026-04-21 23:06 -37.34967 145.83099 20041 ft 315 kts 236°
2026-04-21 23:06 -37.36183 145.80782 19654 ft 319 kts 236°
2026-04-21 23:07 -37.37414 145.78438 19254 ft 323 kts 236°
2026-04-21 23:07 -37.38652 145.76074 18863 ft 326 kts 236°
2026-04-21 23:07 -37.39907 145.73679 18428 ft 329 kts 236°
2026-04-21 23:07 -37.41168 145.71268 18015 ft 330 kts 236°
2026-04-21 23:08 -37.42431 145.68852 17610 ft 331 kts 236°
2026-04-21 23:08 -37.43696 145.66428 17204 ft 332 kts 237°
2026-04-21 23:08 -37.44965 145.63993 16793 ft 332 kts 237°
2026-04-21 23:08 -37.46266 145.61605 16394 ft 328 kts 234°
2026-04-21 23:09 -37.47599 145.59295 15995 ft 325 kts 233°
2026-04-21 23:09 -37.48923 145.57057 15615 ft 321 kts 233°
2026-04-21 23:09 -37.50273 145.54784 15218 ft 318 kts 233°
2026-04-21 23:09 -37.51567 145.52591 14832 ft 315 kts 234°
2026-04-21 23:10 -37.52868 145.50367 14457 ft 313 kts 234°
2026-04-21 23:10 -37.54154 145.48158 14065 ft 311 kts 234°
2026-04-21 23:10 -37.55424 145.45970 13659 ft 308 kts 234°
2026-04-21 23:10 -37.56687 145.43798 13288 ft 305 kts 234°
2026-04-21 23:11 -37.57933 145.41654 12912 ft 302 kts 234°
2026-04-21 23:11 -37.59170 145.39522 12542 ft 300 kts 234°
2026-04-21 23:11 -37.60398 145.37400 12177 ft 298 kts 234°
2026-04-21 23:11 -37.61612 145.35297 11812 ft 296 kts 234°
2026-04-21 23:12 -37.62819 145.33204 11453 ft 294 kts 234°
2026-04-21 23:12 -37.64022 145.31121 11092 ft 293 kts 234°
2026-04-21 23:12 -37.65218 145.29045 10725 ft 292 kts 233°
2026-04-21 23:12 -37.66428 145.26942 10105 ft 301 kts 233°
2026-04-21 23:13 -37.67657 145.24808 9763 ft 297 kts 233°
2026-04-21 23:13 -37.68866 145.22709 9369 ft 295 kts 233°
2026-04-21 23:13 -37.70060 145.20630 8974 ft 293 kts 233°
2026-04-21 23:13 -37.71250 145.18558 8590 ft 289 kts 233°
2026-04-21 23:14 -37.72425 145.16513 8089 ft 287 kts 233°
2026-04-21 23:14 -37.73591 145.14479 7660 ft 282 kts 233°
2026-04-21 23:14 -37.74713 145.12524 7525 ft 268 kts 233°
2026-04-21 23:14 -37.75792 145.10647 7233 ft 261 kts 233°
2026-04-21 23:15 -37.76855 145.08797 6893 ft 258 kts 233°
2026-04-21 23:15 -37.77886 145.06996 6553 ft 254 kts 233°
2026-04-21 23:15 -37.78906 145.05214 6170 ft 248 kts 234°
2026-04-21 23:15 -37.79915 145.03450 5709 ft 247 kts 234°
2026-04-21 23:16 -37.80899 145.01676 5236 ft 245 kts 241°
2026-04-21 23:16 -37.81564 144.99710 4776 ft 242 kts 256°
2026-04-21 23:16 -37.81930 144.97647 4321 ft 239 kts 260°
2026-04-21 23:16 -37.82282 144.95616 3821 ft 239 kts 260°
2026-04-21 23:17 -37.82627 144.93571 3591 ft 227 kts 261°
2026-04-21 23:17 -37.82883 144.91693 3469 ft 212 kts 264°
2026-04-21 23:17 -37.83101 144.89928 3404 ft 193 kts 264°
2026-04-21 23:17 -37.83170 144.88323 3274 ft 171 kts 285°
2026-04-21 23:18 -37.82642 144.87150 3207 ft 141 kts 316°
2026-04-21 23:18 -37.81831 144.86599 3003 ft 129 kts 343°
2026-04-21 23:18 -37.80966 144.86435 2838 ft 122 kts 348°
2026-04-21 23:18 -37.80133 144.86277 2667 ft 120 kts 348°
2026-04-21 23:19 -37.79315 144.86121 2506 ft 118 kts 348°
2026-04-21 23:19 -37.78513 144.85967 2349 ft 118 kts 349°
2026-04-21 23:19 -37.77701 144.85811 2194 ft 117 kts 349°
2026-04-21 23:19 -37.76890 144.85658 2025 ft 118 kts 349°
2026-04-21 23:20 -37.76080 144.85506 1859 ft 117 kts 350°
2026-04-21 23:20 -37.75274 144.85354 1703 ft 117 kts 350°
2026-04-21 23:20 -37.74467 144.85202 1542 ft 117 kts 351°
2026-04-21 23:20 -37.73661 144.85049 1388 ft 119 kts 351°
2026-04-21 23:21 -37.72857 144.84898 1230 ft 116 kts 352°
2026-04-21 23:21 -37.72048 144.84746 1068 ft 118 kts 353°
2026-04-21 23:21 -37.71259 144.84597 916 ft 115 kts 354°
2026-04-21 23:21 -37.70465 144.84448 741 ft 115 kts 355°
2026-04-21 23:22 -37.69675 144.84301 600 ft 117 kts 354°
2026-04-21 23:22 -37.68890 144.84154 431 ft 108 kts 355°
2026-04-21 23:22 -37.68215 144.84035 359 ft 85 kts 353°
2026-04-21 23:22 -37.67791 144.83951 365 ft 43 kts 351°
2026-04-21 23:23 -37.67469 144.83892 378 ft 53 kts 351°
2026-04-21 23:23 -37.67121 144.83830 392 ft 40 kts 356°
2026-04-21 23:23 -37.66859 144.83904 393 ft 20 kts 22°
2026-04-21 23:23 -37.66757 144.83963 394 ft 19 kts 37°
2026-04-21 23:24 -37.66709 144.84143 403 ft 25 kts 79°
2026-04-21 23:24 -37.66679 144.84368 408 ft 27 kts 81°
2026-04-21 23:24 -37.66652 144.84604 411 ft 26 kts 82°
2026-04-21 23:24 -37.66606 144.84785 412 ft 21 kts 32°
2026-04-21 23:25 -37.66535 144.84958 415 ft 19 kts 83°
2026-04-21 23:25 -37.66592 144.85062 414 ft 18 kts 174°
2026-04-21 23:25 -37.66683 144.85078 412 ft 14 kts 176°
2026-04-21 23:25 -37.66773 144.85088 409 ft 8 kts 180°
2026-04-21 23:26 -37.66776 144.85135 410 ft 4 kts 51°
2026-04-21 23:26 -37.66776 144.85166 411 ft 0 kts 83°